EW0322 Weather Reports


Display with metric or nautical units.
time (UTC)temp
F
wind
direction
speed
MPH
gust
MPH
rain 1hr
in
rain 24hr
in
rain mn
in
humidity
%
barometer
mb
20260505204526 78 240 1.0 7.0 0.00 0.00 0.00 29 1002.5
20260505203026 77 291 0.0 5.0 0.00 0.00 0.00 28 1002.8
20260505201626 78 294 1.0 9.0 0.00 0.00 0.00 28 1003.0
20260505200033 77 240 1.0 10.0 0.00 0.00 0.00 28 1003.2
20260505194518 76 246 0.0 8.0 0.00 0.00 0.00 29 1003.3
20260505193016 73 245 0.0 11.0 0.00 0.00 0.00 31 1003.5
20260505191524 73 242 3.0 9.0 0.00 0.00 0.00 31 1003.8
20260505190018 73 240 4.0 12.0 0.00 0.00 0.00 30 1003.6
20260505184514 74 190 4.0 11.0 0.00 0.00 0.00 30 1003.4
20260505183014 73 213 3.0 8.0 0.00 0.00 0.00 31 1003.8
20260505181517 74 227 3.0 6.0 0.00 0.00 0.00 30 1003.9
20260505180012 75 233 1.0 6.0 0.00 0.00 0.00 31 1003.7
20260505174508 74 234 0.0 7.0 0.00 0.00 0.00 32 1004.0
20260505173011 73 237 2.0 9.0 0.00 0.00 0.00 32 1004.0
20260505171507 73 234 1.0 8.0 0.00 0.00 0.00 33 1003.8
20260505170004 70 259 0.0 4.0 0.00 0.00 0.00 34 1003.8
20260505164503 70 260 1.0 7.0 0.00 0.00 0.00 34 1003.9
20260505163006 71 336 0.0 4.0 0.00 0.00 0.00 33 1003.9
20260505161504 70 341 0.0 3.0 0.00 0.00 0.00 34 1003.7
20260505153059 69 347 0.0 1.0 0.00 0.00 0.00 36 1003.7
20260505151558 68 346 0.0 3.0 0.00 0.00 0.00 38 1003.8
20260505150106 67 317 0.0 1.0 0.00 0.00 0.00 39 1003.9
20260505124536 65 314 0.0 3.0 0.00 0.00 0.00 38 1003.5
20260505123034 65 316 0.0 3.0 0.00 0.00 0.00 38 1003.3
20260505121537 65 317 0.0 3.0 0.00 0.00 0.00 38 1003.2
20260505120031 65 317 0.0 2.0 0.00 0.00 0.00 37 1003.0
20260505114528 65 317 0.0 3.0 0.00 0.00 0.00 36 1003.1
20260505113026 66 317 0.0 3.0 0.00 0.00 0.00 35 1003.0
20260505111525 66 319 0.0 4.0 0.00 0.00 0.00 34 1002.8
20260505101529 67 307 0.0 3.0 0.00 0.00 0.00 33 1002.1
20260505100019 67 304 0.0 2.0 0.00 0.00 0.00 33 1002.1
20260505094517 67 304 0.0 3.0 0.00 0.00 0.00 33 1002.3
20260505093016 68 301 0.0 3.0 0.00 0.00 0.00 32 1002.2
20260505091513 68 295 0.0 4.0 0.00 0.00 0.00 31 1002.4
20260505090028 69 294 0.0 3.0 0.00 0.00 0.00 30 1002.5
20260505084511 69 292 0.0 3.0 0.00 0.00 0.00 29 1002.6
20260505083008 69 292 0.0 3.0 0.00 0.00 0.00 28 1002.5
20260505081507 70 295 0.0 2.0 0.00 0.00 0.00 28 1003.0
20260505080014 70 295 0.0 3.0 0.00 0.00 0.00 26 1003.0
20260505074502 71 293 0.0 2.0 0.00 0.00 0.00 24 1003.3
20260505073104 71 292 0.0 1.0 0.00 0.00 0.00 24 1003.1
20260505071557 72 292 0.0 2.0 0.00 0.00 0.00 23 1003.4
20260505070055 73 292 0.0 2.0 0.00 0.00 0.00 22 1002.9
20260505064554 73 292 0.0 2.0 0.00 0.00 0.00 21 1002.9
20260505063051 73 294 0.0 3.0 0.00 0.00 0.00 21 1002.9
20260505061551 73 292 0.0 3.0 0.00 0.00 0.00 21 1003.2
20260505060049 73 292 0.0 3.0 0.00 0.00 0.00 21 1003.3
20260505054554 74 294 0.0 2.0 0.00 0.00 0.00 20 1003.4
20260505053046 74 294 0.0 2.0 0.00 0.00 0.00 20 1003.3
20260505051546 75 294 0.0 5.0 0.00 0.00 0.00 19 1003.0
20260505041547 77 242 0.0 5.0 0.00 0.00 0.00 20 1002.7
20260505040042 78 238 1.0 5.0 0.00 0.00 0.00 20 1002.8
20260505034542 78 242 1.0 8.0 0.00 0.00 0.00 20 1002.5
20260505033044 78 239 1.0 7.0 0.00 0.00 0.00 21 1002.5
20260505031553 78 244 1.0 7.0 0.00 0.00 0.00 21 1002.4
20260505030045 78 236 1.0 7.0 0.00 0.00 0.00 20 1002.3
20260505024548 79 238 1.0 8.0 0.00 0.00 0.00 20 1002.1
20260505023044 79 237 1.0 4.0 0.00 0.00 0.00 19 1002.0
20260505021538 79 237 2.0 12.0 0.00 0.00 0.00 19 1001.9
20260505020037 80 237 3.0 7.0 0.00 0.00 0.00 18 1001.4
20260505014558 80 238 3.0 9.0 0.00 0.00 0.00 18 1001.4
20260505013037 80 242 1.0 6.0 0.00 0.00 0.00 18 1001.3
20260505011546 81 242 1.0 9.0 0.00 0.00 0.00 18 1001.1
20260505010036 81 232 2.0 9.0 0.00 0.00 0.00 17 1000.8
20260505004533 81 236 2.0 9.0 0.00 0.00 0.00 17 1001.3
20260505003032 82 238 2.0 11.0 0.00 0.00 0.00 17 1001.9
20260505001531 82 226 4.0 12.0 0.00 0.00 0.00 16 1001.8
20260505000031 83 252 0.0 9.0 0.00 0.00 0.00 16 1001.7
20260504234531 83 233 3.0 10.0 0.00 0.00 0.00 16 1001.9
20260504233029 83 235 0.0 11.0 0.00 0.00 0.00 16 1001.9
20260504231529 85 238 4.0 16.0 0.00 0.00 0.00 14 1001.8
20260504230026 85 223 1.0 8.0 0.00 0.00 0.00 14 1001.9
20260504224534 85 250 1.0 13.0 0.00 0.00 0.00 14 1002.0
20260504223024 86 238 1.0 9.0 0.00 0.00 0.00 13 1002.3
20260504221523 85 228 5.0 15.0 0.00 0.00 0.00 14 1002.6
20260504220020 84 232 5.0 12.0 0.00 0.00 0.00 14 1002.8
20260504214523 84 224 5.0 14.0 0.00 0.00 0.00 14 1003.0
20260504213020 84 241 4.0 15.0 0.00 0.00 0.00 14 1003.3
20260504211517 85 240 4.0 16.0 0.00 0.00 0.00 13 1003.5
20260504210014 84 219 4.0 14.0 0.00 0.00 0.00 14 1003.6